Tracking 20040 objects as of 19-Nov-2019
Live streaming from Space Station
objects crossing your sky now

BRAZILSAT 1

Track BRAZILSAT 1 now!
BRAZILSAT 1 is classified as:


NORAD ID: 15561
Int'l Code: 1985-015B
Perigee: 35,967.4 km
Apogee: 36,026.9 km
Inclination: 15.3 °
Period: 1,446.5 minutes
Semi major axis: 42368 km
RCS: 2.7147 m2 (large)
Launch date: February 8, 1985
Source: Brazil (BRAZ)
Launch site: FRENCH GUIANA (FRGUI)
aabbcc
Your satellite tracking list
Your tracking list is empty




NASA's NSSDC Master Catalog

Two Line Element Set (TLE):
1 15561U 85015B   19321.48937789 -.00000275 +00000-0 +00000-0 0  9993
2 15561 015.2725 004.3572 0007023 307.3680 232.9957 00.99550479022416
Source of the keplerian elements: AFSPC